Vorticity
nan nan nan nan nan nan nan nan nan nan nan nan nan nan nan nan nan nan nan nan nan nan nan nan nan nan nan nan nan nan nan nan nan nan nan nan nan nan nan nan nan nan nan
nan 8 6 6 6 5 6 6 6 6 5 5 5 5 5 5 5 5 5 5 6 6 4 4 5 4 5 5 5 4 5 5 6 5 6 4 2 5 5 5 5 5 nan
nan 7 6 7 5 6 6 6 5 7 6 5 4 5 5 4 5 6 5 5 5 5 5 4 5 4 5 5 5 4 4 5 6 8 4 3 5 6 4 5 5 5 nan
nan 6 7 7 5 5 5 5 6 6 5 5 5 5 5 5 5 5 4 5 5 4 4 4 4 4 4 5 4 4 5 7 10 10 6 6 6 5 5 5 5 4 nan
nan 7 9 8 5 5 5 5 6 5 5 6 5 5 5 5 6 5 5 6 7 6 4 4 4 4 4 5 5 5 6 11 12 7 7 7 7 7 5 4 4 4 nan
nan 9 9 6 7 6 5 5 5 5 5 5 6 6 5 5 5 4 5 7 8 8 5 5 4 4 5 6 5 5 8 10 7 7 8 7 8 9 5 5 5 4 nan
nan 9 9 8 7 6 5 5 5 5 5 5 6 6 6 5 4 5 6 7 8 7 5 4 4 5 6 6 6 7 9 7 7 7 8 8 11 9 6 5 4 4 nan
nan 7 8 7 5 6 5 5 5 5 5 5 5 6 6 6 5 5 6 6 6 8 5 5 5 6 7 6 7 10 9 6 6 7 8 8 11 8 8 8 7 5 nan
nan 6 7 7 7 5 5 5 5 5 6 6 6 6 6 6 6 6 5 5 5 6 6 5 5 8 6 6 8 7 7 8 7 7 6 8 10 8 8 7 9 8 nan
nan 4 5 6 7 7 8 7 6 6 7 8 7 6 6 5 5 5 5 6 6 5 6 6 7 6 6 8 8 6 5 4 7 7 8 10 6 7 8 8 9 9 nan
nan 5 5 4 5 7 8 8 8 8 8 8 7 5 2 5 7 7 7 7 6 6 7 6 6 6 7 6 4 5 1 4 6 7 6 8 6 7 6 7 10 14 nan
nan 5 5 5 4 6 7 8 7 7 6 6 7 6 6 8 7 7 8 8 6 6 5 5 5 4 3 4 4 3 4 7 6 7 7 8 7 6 6 7 8 17 nan
nan 6 7 6 6 6 5 5 6 7 7 8 7 6 6 6 7 7 7 6 7 6 5 5 5 6 7 7 7 6 8 6 7 6 7 8 9 6 6 8 8 11 nan
nan 7 7 6 5 5 6 8 7 6 6 7 8 7 6 7 7 7 7 7 7 6 7 7 8 9 7 8 8 7 7 8 8 6 4 9 11 11 8 4 5 6 nan
nan 5 6 5 5 6 4 6 7 8 8 8 8 7 7 8 7 7 7 7 7 7 7 7 8 9 8 7 8 8 7 7 7 7 3 7 22 16 5 3 1 2 nan
nan 9 6 6 4 6 6 6 5 6 7 7 7 8 7 7 8 7 7 7 7 7 8 7 8 7 7 7 8 7 7 7 7 8 7 1 10 16 10 7 5 4 nan
nan 9 7 8 6 5 5 5 6 7 7 6 8 8 7 6 7 7 7 7 8 8 7 7 8 8 7 7 7 7 7 8 8 7 8 6 2 6 9 7 6 7 nan
nan 14 14 10 6 4 4 5 6 9 7 7 7 7 7 6 6 7 7 8 8 8 7 7 6 7 8 8 7 6 7 7 7 8 9 9 7 3 1 8 6 6 nan
nan 11 10 11 11 8 7 8 9 8 6 7 7 10 10 6 5 6 6 8 8 7 8 6 7 8 7 8 8 7 8 8 8 7 7 8 9 9 6 1 1 5 nan
nan 12 9 10 12 10 8 6 7 8 9 8 8 9 8 8 7 5 6 8 7 6 7 9 8 10 9 6 5 6 8 8 8 7 7 7 7 9 10 3 3 4 nan
nan 15 14 9 9 7 6 6 8 8 7 9 11 11 8 8 8 5 6 8 8 9 8 4 8 8 6 7 4 4 6 7 8 8 9 8 7 6 7 7 9 8 nan
nan 7 11 15 11 6 4 7 10 11 10 11 11 12 11 8 7 6 7 9 8 7 9 7 4 2 10 6 2 8 7 5 7 8 9 9 7 7 6 7 8 8 nan
nan 8 11 15 16 14 8 2 4 7 8 10 9 10 10 11 10 9 7 8 7 8 9 8 7 4 4 11 6 2 8 9 6 7 8 9 8 8 8 6 6 7 nan
nan 7 7 9 23 24 11 8 7 4 4 7 9 9 11 12 9 9 8 8 6 6 9 9 8 7 8 8 1 4 12 12 7 7 7 9 10 8 7 7 8 8 nan
nan 10 9 9 8 15 23 16 8 5 5 8 13 11 9 10 11 10 9 9 7 7 10 8 7 10 10 10 4 3 6 8 12 10 9 7 7 8 9 9 8 7 nan
nan nan nan nan nan nan nan nan nan nan nan nan nan nan nan nan nan nan nan nan nan nan nan nan nan nan nan nan nan nan nan nan nan nan nan nan nan nan nan nan nan nan nan
CAPE
134 1127 1746 1938 1900 1760 1677 1604 1587 1701 1827 1881 1955 2029 2082 2135 2181 2193 2073 1975 1933 1138 1110 1155 903 666 530 478 423 364 314 374 703 1111 1436 1060 745 786 693 835 734 542 570
341 1159 1690 1929 1924 1777 1742 1664 1667 1792 1964 2002 1981 2010 2026 2027 2022 2038 2022 1902 1785 1266 1166 968 774 632 558 507 479 432 339 335 344 522 1281 1229 790 687 803 890 812 614 558
591 1192 1647 1832 1928 1899 1909 1804 1864 2000 2036 1974 1976 1923 1930 1985 1960 1902 1925 1828 1679 1305 1102 946 827 677 588 508 443 393 306 251 176 298 794 600 601 754 955 941 1083 663 558
595 1119 1489 1729 1883 2015 1994 1955 2014 2021 1985 1955 1886 1865 1878 1924 1967 1931 1926 1775 1695 1384 1172 1081 903 631 434 443 495 393 246 239 306 197 156 772 833 982 952 779 719 600 543
486 849 1354 1648 1817 2002 2020 2053 2100 2068 1972 1931 1828 1868 1831 1856 1849 1712 1745 1780 1888 1879 1590 1024 676 447 427 523 339 167 98 390 481 196 419 714 968 1353 843 672 666 628 584
440 606 1245 1490 1737 1923 2041 2117 2116 1961 1859 1915 1977 2059 2068 2094 1951 1771 1762 1795 2214 2032 1456 999 693 504 441 281 120 0 0 373 413 642 799 1203 1075 1271 878 626 646 597 667
570 671 901 1314 1625 1891 2114 2154 1930 1790 1713 1815 1975 2008 1974 1943 1727 1525 1480 1625 1797 1938 1566 1030 696 444 200 58 0 0 0 151 112 268 340 592 1052 1395 1070 777 643 708 587
778 686 744 1189 1480 1707 1910 1815 1561 1452 1447 1571 1740 1835 1889 1671 1501 1444 1474 1504 1522 1277 771 743 409 133 9 0 0 0 26 6 14 162 448 746 1220 1140 1233 1120 797 773 727
822 738 779 1042 1284 1457 1589 1426 1245 1141 1086 1254 1536 1686 1549 1240 1097 1127 1164 1189 1029 811 558 279 67 1 0 0 0 0 0 0 0 61 520 609 1073 824 885 1031 1096 795 772
815 745 850 962 1088 1105 1228 1178 1014 949 894 1141 1537 1449 1117 898 808 785 719 754 562 374 160 16 0 0 0 0 0 0 0 0 0 69 274 580 849 689 663 529 576 709 801
604 851 899 951 912 828 845 1017 1001 973 913 1168 1171 881 617 306 308 366 109 306 202 109 14 0 0 0 0 0 0 0 0 0 0 0 0 236 595 333 273 453 612 616 105
495 564 620 769 712 543 800 865 729 729 679 561 401 271 36 7 0 0 2 63 41 0 0 0 0 0 0 0 0 0 0 0 0 0 0 0 24 76 149 163 400 613 522
575 530 403 418 406 493 693 504 393 303 204 140 83 1 0 0 0 0 0 0 0 0 0 0 0 0 0 0 0 0 0 0 0 0 0 0 1 4 40 43 83 119 336
813 556 422 294 280 306 288 326 256 303 90 33 0 0 0 0 0 0 0 0 0 0 0 0 0 0 0 0 0 0 0 0 0 0 0 0 0 11 56 70 55 42 23
998 809 530 316 298 217 49 79 42 210 207 27 0 0 0 0 0 0 0 0 0 0 0 0 0 0 0 0 0 0 0 0 0 0 0 0 4 73 59 63 47 34 22
1143 1136 675 454 271 133 91 10 2 20 6 0 0 0 0 0 0 0 0 0 0 0 0 0 0 0 0 0 0 0 0 0 0 0 0 0 1 31 53 32 14 16 16
981 977 745 613 345 59 34 0 0 0 0 0 0 0 0 0 0 0 0 0 0 0 0 0 0 0 0 0 0 0 0 0 0 0 0 0 0 0 5 7 3 13 10
710 818 716 662 500 222 9 0 0 0 0 0 0 0 0 0 0 0 0 0 0 0 0 0 0 0 0 0 0 0 0 0 0 0 0 0 0 0 0 0 1 3 5
523 557 514 564 588 206 29 0 0 0 0 0 0 0 0 0 0 0 0 0 0 0 0 0 0 0 0 0 0 0 0 0 0 0 0 0 0 0 0 0 0 1 4
332 400 392 482 744 630 135 0 0 0 0 0 0 0 0 0 0 0 0 0 0 0 0 0 0 0 0 0 0 0 0 0 0 0 0 0 0 0 0 0 0 0 1
0 1 289 407 620 792 214 0 0 0 0 0 0 0 0 0 0 0 0 0 0 0 0 0 0 0 0 0 0 0 0 0 0 0 0 0 0 0 0 0 0 0 0
0 0 0 46 359 839 900 229 3 0 0 0 0 0 0 0 0 0 0 0 0 0 0 0 0 0 0 0 0 0 0 0 0 0 0 0 0 0 0 0 0 0 0
0 0 0 0 0 656 930 690 0 0 0 0 0 0 0 0 0 0 0 0 0 0 0 0 0 0 0 0 0 0 0 0 0 0 0 0 0 0 0 0 0 0 0
0 0 0 0 0 242 905 770 0 0 0 0 0 0 0 0 0 0 0 0 0 0 0 0 0 0 0 0 0 0 0 0 0 0 0 0 0 0 0 0 0 0 0
0 0 0 0 0 0 385 623 0 0 0 0 0 0 0 0 0 0 0 0 0 0 0 0 0 0 0 0 0 0 0 0 0 0 0 0 0 0 0 0 0 0 0
0 0 0 0 0 0 0 0 0 0 0 0 0 0 0 0 0 0 0 0 0 0 0 0 0 0 0 0 0 0 0 0 0 0 0 0 0 0 0 0 0 0 0